Home > Weather > Macau > Past weeks

Flag for Macau Past Weather in Macau, Macau — Yesterday and Last 2 Weeks

Now
88 °F

Passing clouds.


Feels Like: 100 °F
Forecast: 83 / 88 °F
Wind: 10 mph from Southeast

Location: Taipa

Current Time: Jul 25, 2016 at 8:00:41 PM

Latest Report: Jul 25, 2016 at 7:30 PM


Visibility: N/A

Pressure: 29.77 "Hg

Humidity: 70%

Dew Point: 77 °F

Location of MacauLocation

Past Weather in Macau — Graph

°F

Macau Temperature Yesterday

Maximum temperature yesterday: 90 °F (at 1:00 PM)
Minimum temperature yesterday: 82 °F (at 2:30 AM)
Average temperature yesterday: 86 °F

High & Low Weather Summary for the Past Weeks

 TemperatureHumidityPressure
High91 °F (Jul 23, 1:30 PM)100% (Jul 11, 4:30 PM)29.89 "Hg (Jul 11, 4:30 PM)
Low77 °F (Jul 11, 4:30 PM)63% (Jul 23, 10:30 AM)29.50 "Hg (Jul 10, 7:00 PM)
Average85 °F83%29.73 "Hg
* Reported Jul 10 7:00 PM — Jul 25 7:00 PM, Macau, Weather by CustomWeather, © 2016

Note: Actual official high and low records may vary slightly from our data, if they occured in-between our weather recording intervals... More about our weather records

Advertising

Macau Weather History for the Previous 24 Hours

Scroll right to see more
 ConditionsComfort  
Time TempWeatherWind HumidityBarometerVisibility
7:00 PM
Mon, Jul 25
88 °FPassing clouds.8 mph70%29.74 "HgN/A
6:30 PM88 °FPassing clouds.9 mph70%29.74 "HgN/A
6:00 PM88 °FPassing clouds.9 mph70%29.71 "HgN/A
5:30 PM90 °FPassing clouds.9 mph71%29.71 "HgN/A
5:00 PM90 °FPassing clouds.9 mph67%29.71 "HgN/A
4:30 PM90 °FPassing clouds.8 mph67%29.71 "HgN/A
4:00 PM90 °FPassing clouds.8 mph63%29.71 "HgN/A
3:30 PM90 °FPassing clouds.9 mph67%29.71 "HgN/A
3:00 PM90 °FPassing clouds.9 mph67%29.74 "HgN/A
2:30 PM90 °FPassing clouds.9 mph67%29.74 "HgN/A
2:00 PM90 °FPassing clouds.7 mph63%29.74 "HgN/A
1:30 PM90 °FPassing clouds.7 mph71%29.77 "HgN/A
1:00 PM88 °FPassing clouds.7 mph70%29.77 "HgN/A
12:30 PM88 °FPassing clouds.7 mph75%29.77 "HgN/A
12:00 PM88 °FPassing clouds.7 mph75%29.80 "HgN/A
11:30 AM88 °FPassing clouds.7 mph75%29.80 "HgN/A
11:00 AM88 °FPassing clouds.6 mph75%29.80 "HgN/A
10:30 AM88 °FPassing clouds.6 mph75%29.80 "HgN/A
10:00 AM86 °FPassing clouds.6 mph79%29.80 "HgN/A
9:30 AM86 °FPassing clouds.5 mph79%29.80 "HgN/A
9:00 AM86 °FPassing clouds.5 mph79%29.80 "HgN/A
8:30 AM86 °FPassing clouds.3 mph79%29.80 "HgN/A
8:00 AM86 °FPassing clouds.3 mph79%29.80 "HgN/A
7:30 AM84 °FPassing clouds.2 mph79%29.80 "HgN/A
7:00 AM84 °FPassing clouds.2 mph79%29.80 "HgN/A
6:30 AM82 °FPassing clouds.2 mph84%29.80 "HgN/A
6:00 AM82 °FPassing clouds.2 mph84%29.80 "HgN/A
5:30 AM82 °FPassing clouds.3 mph84%29.77 "HgN/A
5:00 AM82 °FPassing clouds.3 mph84%29.77 "HgN/A
4:30 AM82 °FPassing clouds.5 mph84%29.77 "HgN/A
4:00 AM82 °FPassing clouds.3 mph84%29.77 "HgN/A
3:30 AM82 °FPassing clouds.3 mph84%29.77 "HgN/A
3:00 AM82 °FPassing clouds.2 mph84%29.74 "HgN/A
2:30 AM82 °FPassing clouds.5 mph84%29.74 "HgN/A
2:00 AM84 °FPassing clouds.5 mph84%29.74 "HgN/A
1:30 AM84 °FPassing clouds.7 mph84%29.77 "HgN/A
1:00 AM84 °FPassing clouds.7 mph84%29.77 "HgN/A
12:30 AM84 °FPassing clouds.7 mph84%29.77 "HgN/A
12:00 AM84 °FPassing clouds.8 mph84%29.77 "HgN/A
11:30 PM
Sun, Jul 24
84 °FPassing clouds.9 mph84%29.77 "HgN/A
11:00 PM84 °FPassing clouds.7 mph84%29.77 "HgN/A
10:30 PM84 °FPassing clouds.5 mph84%29.77 "HgN/A
10:00 PM84 °FPassing clouds.7 mph84%29.77 "HgN/A
9:30 PM84 °FPassing clouds.6 mph84%29.77 "HgN/A
9:00 PM84 °FPassing clouds.7 mph84%29.74 "HgN/A
8:30 PM86 °FPassing clouds.9 mph79%29.74 "HgN/A
8:00 PM86 °FPassing clouds.12 mph79%29.74 "HgN/A
Weather by CustomWeather, © 2016

See weather overviewHow to use our weather pages